TimeEDT,TemperatureF,Dew PointF,Humidity,Sea Level PressureIn,VisibilityMPH,Wind Direction,Wind SpeedMPH,Gust SpeedMPH,PrecipitationIn,Events,Conditions,WindDirDegrees,DateUTC
12:15 AM,77.0,-9999,N/A,30.15,10.0,ESE,4.6,-,N/A,,Clear,120,2013-07-06 04:15:00
12:35 AM,77.0,-9999,N/A,30.15,10.0,ESE,3.5,-,N/A,,Scattered Clouds,110,2013-07-06 04:35:00
12:55 AM,77.0,-9999,N/A,30.15,10.0,SE,3.5,-,N/A,,Clear,130,2013-07-06 04:55:00
1:15 AM,77.0,-9999,N/A,30.14,10.0,ESE,3.5,-,N/A,,Scattered Clouds,110,2013-07-06 05:15:00
1:35 AM,77.0,-9999,N/A,30.13,10.0,Calm,Calm,-,N/A,,Scattered Clouds,0,2013-07-06 05:35:00
1:55 AM,77.0,-9999,N/A,30.13,10.0,Calm,Calm,-,N/A,,Scattered Clouds,0,2013-07-06 05:55:00
2:15 AM,75.2,-9999,N/A,30.12,7.0,Calm,Calm,-,N/A,,Clear,0,2013-07-06 06:15:00
2:35 AM,75.2,-9999,N/A,30.12,7.0,Calm,Calm,-,N/A,,Clear,0,2013-07-06 06:35:00
2:55 AM,75.2,-9999,N/A,30.11,7.0,East,3.5,-,N/A,,Clear,90,2013-07-06 06:55:00
3:15 AM,75.2,-9999,N/A,30.10,7.0,East,4.6,-,N/A,,Clear,90,2013-07-06 07:15:00
3:35 AM,75.2,-9999,N/A,30.10,7.0,East,4.6,-,N/A,,Clear,100,2013-07-06 07:35:00
3:55 AM,75.2,-9999,N/A,30.10,7.0,East,3.5,-,N/A,,Clear,100,2013-07-06 07:55:00
4:15 AM,75.2,-9999,N/A,30.10,7.0,ESE,3.5,-,N/A,,Clear,110,2013-07-06 08:15:00
4:35 AM,75.2,-9999,N/A,30.10,7.0,ESE,4.6,-,N/A,,Clear,110,2013-07-06 08:35:00
4:55 AM,75.2,-9999,N/A,30.10,7.0,Calm,Calm,-,N/A,,Clear,0,2013-07-06 08:55:00
5:15 AM,75.2,-9999,N/A,30.10,7.0,ESE,4.6,-,N/A,,Clear,110,2013-07-06 09:15:00
5:35 AM,75.2,-9999,N/A,30.09,10.0,East,4.6,-,N/A,,Clear,90,2013-07-06 09:35:00
5:55 AM,75.2,-9999,N/A,30.10,10.0,East,5.8,-,N/A,,Clear,90,2013-07-06 09:55:00
6:15 AM,75.2,-9999,N/A,30.09,10.0,East,6.9,-,N/A,,Clear,90,2013-07-06 10:15:00
6:35 AM,75.2,-9999,N/A,30.09,7.0,East,4.6,-,N/A,,Clear,100,2013-07-06 10:35:00
6:55 AM,75.2,-9999,N/A,30.10,7.0,East,5.8,-,N/A,,Clear,100,2013-07-06 10:55:00
7:15 AM,77.0,-9999,N/A,30.10,7.0,East,4.6,-,N/A,,Clear,90,2013-07-06 11:15:00
7:35 AM,77.0,-9999,N/A,30.11,7.0,East,5.8,-,N/A,,Clear,100,2013-07-06 11:35:00
7:55 AM,78.8,-9999,N/A,30.12,10.0,East,8.1,-,N/A,,Clear,100,2013-07-06 11:55:00
8:15 AM,78.8,-9999,N/A,30.12,10.0,ESE,6.9,-,N/A,,Clear,110,2013-07-06 12:15:00
8:35 AM,80.6,-9999,N/A,30.13,10.0,ESE,9.2,-,N/A,,Clear,120,2013-07-06 12:35:00
8:55 AM,80.6,77.0,89,30.14,10.0,ESE,10.4,-,N/A,,Clear,120,2013-07-06 12:55:00
9:15 AM,82.4,77.0,84,30.14,10.0,SE,9.2,-,N/A,,Clear,140,2013-07-06 13:15:00
9:35 AM,84.2,75.2,74,30.14,10.0,SE,9.2,-,N/A,,Clear,130,2013-07-06 13:35:00
9:55 AM,84.2,75.2,74,30.14,10.0,SE,9.2,-,N/A,,Scattered Clouds,130,2013-07-06 13:55:00
10:15 AM,84.2,75.2,74,30.15,10.0,SE,11.5,-,N/A,,Scattered Clouds,130,2013-07-06 14:15:00
10:35 AM,86.0,75.2,70,30.15,10.0,SE,10.4,-,N/A,,Scattered Clouds,140,2013-07-06 14:35:00
10:55 AM,86.0,73.4,66,30.15,10.0,ESE,11.5,-,N/A,,Scattered Clouds,120,2013-07-06 14:55:00
11:15 AM,86.0,73.4,66,30.15,10.0,SE,10.4,-,N/A,,Scattered Clouds,140,2013-07-06 15:15:00
11:35 AM,86.0,73.4,66,30.15,10.0,SSE,5.8,-,N/A,,Scattered Clouds,150,2013-07-06 15:35:00
11:55 AM,86.0,73.4,66,30.15,10.0,SSE,11.5,-,N/A,,Mostly Cloudy,150,2013-07-06 15:55:00
12:15 PM,87.8,73.4,62,30.14,10.0,SE,10.4,-,N/A,,Mostly Cloudy,140,2013-07-06 16:15:00
12:35 PM,89.6,73.4,59,30.13,10.0,ESE,5.8,-,N/A,,Scattered Clouds,110,2013-07-06 16:35:00
12:55 PM,87.8,71.6,58,30.13,10.0,SE,9.2,-,N/A,,Mostly Cloudy,130,2013-07-06 16:55:00
1:15 PM,89.6,71.6,55,30.12,10.0,SE,8.1,-,N/A,,Mostly Cloudy,130,2013-07-06 17:15:00
1:35 PM,89.6,71.6,55,30.12,10.0,ESE,6.9,-,N/A,,Mostly Cloudy,120,2013-07-06 17:35:00
1:55 PM,89.6,69.8,52,30.12,10.0,ESE,8.1,-,N/A,,Scattered Clouds,110,2013-07-06 17:55:00
2:15 PM,89.6,69.8,52,30.11,10.0,East,6.9,-,N/A,,Scattered Clouds,100,2013-07-06 18:15:00
2:35 PM,91.4,68.0,46,30.10,10.0,ESE,11.5,17.3,N/A,,Scattered Clouds,110,2013-07-06 18:35:00
2:55 PM,91.4,69.8,49,30.10,10.0,SSE,10.4,-,N/A,,Scattered Clouds,150,2013-07-06 18:55:00
3:15 PM,91.4,68.0,46,30.10,10.0,SE,9.2,17.3,N/A,,Clear,130,2013-07-06 19:15:00
3:35 PM,91.4,68.0,46,30.09,10.0,ESE,10.4,-,N/A,,Clear,120,2013-07-06 19:35:00
3:55 PM,91.4,68.0,46,30.09,10.0,SE,9.2,-,N/A,,Mostly Cloudy,130,2013-07-06 19:55:00
4:15 PM,89.6,69.8,52,30.08,10.0,SSE,5.8,-,N/A,,Scattered Clouds,150,2013-07-06 20:15:00
4:35 PM,91.4,69.8,49,30.07,10.0,SE,9.2,-,N/A,,Clear,130,2013-07-06 20:35:00
4:55 PM,91.4,69.8,49,30.07,10.0,SSE,5.8,-,N/A,,Clear,150,2013-07-06 20:55:00
5:15 PM,93.2,68.0,44,30.07,10.0,SE,10.4,16.1,N/A,,Clear,130,2013-07-06 21:15:00
5:35 PM,91.4,68.0,46,30.06,10.0,SSE,8.1,-,N/A,,Clear,160,2013-07-06 21:35:00
5:55 PM,91.4,68.0,46,30.06,10.0,ESE,10.4,16.1,N/A,,Clear,120,2013-07-06 21:55:00
6:15 PM,91.4,68.0,46,30.06,10.0,SE,8.1,-,N/A,,Clear,140,2013-07-06 22:15:00
6:35 PM,91.4,66.2,43,30.06,10.0,ESE,12.7,-,N/A,,Clear,120,2013-07-06 22:35:00
6:55 PM,91.4,68.0,46,30.05,10.0,SE,6.9,-,N/A,,Clear,140,2013-07-06 22:55:00
7:15 PM,89.6,68.0,49,30.06,10.0,ESE,6.9,17.3,N/A,,Clear,110,2013-07-06 23:15:00
7:35 PM,87.8,69.8,55,30.07,10.0,East,8.1,-,N/A,,Scattered Clouds,100,2013-07-06 23:35:00
7:55 PM,86.0,71.6,62,30.08,10.0,East,8.1,-,N/A,,Scattered Clouds,100,2013-07-06 23:55:00
8:15 PM,86.0,73.4,66,30.09,10.0,East,8.1,-,N/A,,Scattered Clouds,100,2013-07-07 00:15:00
8:35 PM,84.2,73.4,70,30.09,10.0,East,8.1,-,N/A,,Scattered Clouds,100,2013-07-07 00:35:00
8:55 PM,84.2,73.4,70,30.10,10.0,East,6.9,-,N/A,,Scattered Clouds,100,2013-07-07 00:55:00
9:15 PM,84.2,71.6,66,30.11,10.0,East,8.1,-,N/A,,Clear,100,2013-07-07 01:15:00
9:35 PM,82.4,73.4,74,30.12,10.0,East,9.2,-,N/A,,Clear,100,2013-07-07 01:35:00
9:55 PM,82.4,73.4,74,30.12,10.0,ESE,8.1,-,N/A,,Clear,110,2013-07-07 01:55:00
10:15 PM,82.4,73.4,74,30.13,10.0,ESE,6.9,-,N/A,,Clear,110,2013-07-07 02:15:00
10:35 PM,82.4,73.4,74,30.14,10.0,East,5.8,-,N/A,,Clear,100,2013-07-07 02:35:00
10:55 PM,80.6,73.4,79,30.14,10.0,East,5.8,-,N/A,,Clear,100,2013-07-07 02:55:00
11:15 PM,80.6,73.4,79,30.14,10.0,East,6.9,-,N/A,,Clear,100,2013-07-07 03:15:00
11:35 PM,80.6,73.4,79,30.14,10.0,East,4.6,-,N/A,,Clear,100,2013-07-07 03:35:00
11:55 PM,80.6,73.4,79,30.13,10.0,ESE,5.8,-,N/A,,Clear,110,2013-07-07 03:55:00